Regional Weather Roundup
Issued by NWS San Angelo, TX

Home | Current Version | Previous Version | Text Only | Print | Product List | Glossary On
Versions: 1 2 3 4 5 6 7 8 9 10 11 12 13 14 15 16 17 18 19 20 21 22 23 24 25 26 27 28 29 30 31 32 33 34 35 36 37 38 39 40 41 42 43 44 45 46 47 48 49 50
000
ASUS44 KSJT 230210
RWRSJT
WEST CENTRAL TEXAS REGIONAL WEATHER ROUNDUP
NATIONAL WEATHER SERVICE SAN ANGELO TX
900 PM CDT MON MAY 22 2017

NOTE: "FAIR" INDICATES FEW OR NO CLOUDS BELOW 12,000 FEET WITH NO
SIGNIFICANT WEATHER AND/OR OBSTRUCTIONS TO VISIBILITY.

TXZ049-054-064>066-071>073-076>078-098-099-113-114-127-128-139-140-
154-155-168>170-230300
...LOCATIONS ACROSS WEST CENTRAL TEXAS...

CITY           SKY/WX    TMP DP  RH WIND       PRES   REMARKS
SAN ANGELO     CLOUDY    73  63  70 SW3       29.93R
ABILENE        CLOUDY   N/A N/A N/A MISG      29.94R
DYESS AFB      CLOUDY    63  59  88 NE9       29.94R
JUNCTION       CLOUDY    72  66  81 NE5       29.93R
SWEETWATER     CLOUDY    71  63  76 SE6       29.96S
BROWNWOOD      CLOUDY    68  63  83 SE7       29.94R
COLEMAN        CLOUDY    71  62  74 E3        29.95R
SONORA         LGT RAIN  72  66  83 CALM      29.99R
OZONA            N/A     72  63  73 S5        30.00R
BRADY          NOT AVBL
$$

TEXAS PANHANDLE/OKLAHOMA PANHANDLE

CITY           SKY/WX    TMP DP  RH WIND       PRES   REMARKS
AMARILLO       CLEAR     58  52  80 NE9       30.02R
BORGER         CLEAR     62  53  72 NE7       30.00R
CANADIAN       CLEAR     59  56  91 E5        29.98R
DALHART        CLEAR     59  49  69 E6        30.04R
DUMAS          CLEAR     57  48  70 NE5       30.03R
GUYMON         NOT AVBL
HEREFORD       CLEAR     64  49  58 NE9       30.02R
PAMPA          CLEAR     57  53  85 NE6       30.02R
PERRYTON       CLEAR     61  54  78 CALM      29.98S
$$

SOUTHERN PANHANDLE/SOUTH PLAINS/ROLLING PLAINS

CITY           SKY/WX    TMP DP  RH WIND       PRES   REMARKS
LUBBOCK        CLOUDY    70  59  68 SE8       29.98R
SNYDER         CLOUDY    71  62  74 S5        29.96R
CHILDRESS      TSTM      64  62  93 NE14G26   29.96R FOG
SEMINOLE       LGT RAIN  69  57  66 CALM      30.00S
$$

PERMIAN BASIN

CITY           SKY/WX    TMP DP  RH WIND       PRES   REMARKS
MIDLAND        CLOUDY    74  59  59 S5        29.97R
ODESSA         CLOUDY    73  60  63 CALM      30.00R
WINK           CLOUDY    66  54  65 N26G49    30.01R
$$

FAR WEST/SOUTHWEST MOUNTAINS/TRANS PECOS

CITY           SKY/WX    TMP DP  RH WIND       PRES   REMARKS
ALPINE         CLEAR     65  54  66 CALM      30.05F
DRYDEN           N/A     72  65  78 NE7       29.95R
EL PASO        PTCLDY    87  22   9 N14       29.89R
FORT STOCKTON  CLEAR     64  60  87 E14       29.92S
GUADALUPE PASS CLOUDY    67  51  56 NE31      30.02R
MARFA          CLEAR     66  53  63 NE14      30.02R
PECOS          CLEAR     72  51  47 NE18      29.96R
$$

DALLAS/FORT WORTH METROPLEX

CITY           SKY/WX    TMP DP  RH WIND       PRES   REMARKS
DFW AIRPORT    CLOUDY    72  62  71 SE13      29.90R
FTW MEACHAM    CLOUDY    75  62  64 E7        29.90S
DAL-EXECUTIVE  CLOUDY    69  62  78 SE8       29.91S
GRAND PRAIRIE  CLEAR     70  61  73 E7        29.92S
ADDISON        PTCLDY    72  59  64 E10       29.91S
MESQUITE       CLOUDY    66  61  84 SE6       29.93R
LANCASTER      PTCLDY    66  61  83 SE3       29.93S
$$

NORTH CENTRAL TEXAS

CITY           SKY/WX    TMP DP  RH WIND       PRES   REMARKS
SHRMAN/DENISON CLOUDY    71  60  68 CALM      29.94R
GAINESVILLE    CLOUDY    70  60  71 CALM      29.94R
BRIDGEPORT     CLOUDY    70  60  70 CALM      29.93R
DENTON         MOCLDY    72  61  68 SE6       29.91R
WAXAHACHIE     PTCLDY    66  62  87 E3        29.93S
GRANBURY       CLOUDY    73  64  73 S5        29.92S
$$

WESTERN NORTH TEXAS

CITY           SKY/WX    TMP DP  RH WIND       PRES   REMARKS
WICHITA FALLS  CLOUDY    71  60  68 E5        29.91R
VERNON         MOCLDY    72  57  60 SE6       29.92R
BRECKENRIDGE   DRIZZLE   72  61  68 NE3       29.91R
COMANCHE       CLOUDY    68  64  84 S5        29.94R
$$

CENTRAL AND SOUTH CENTRAL TEXAS

CITY           SKY/WX    TMP DP  RH WIND       PRES   REMARKS
AUSTIN/BERGSTM PTCLDY    72  65  78 NE6       29.90R
WACO           PTCLDY    69  64  84 E6        29.91R
HILLSBORO      PTCLDY    67  63  85 E7        29.93R
TEMPLE         CLOUDY    70  65  84 SE5       29.92R
KILLEEN-GRAY   CLOUDY    69  65  84 CALM      29.92R
FORT HOOD      MOCLDY    69  64  83 S5        29.89S
GEORGETOWN     CLOUDY    72  63  73 N3        29.92R
LAGO VISTA     CLOUDY    69  66  91 CALM      29.93S
SAN MARCOS     PTCLDY    68  64  88 NE6       29.91R
NEW BRAUNFELS  CLOUDY    73  66  78 NE6       29.88S
RANDOLPH AFB   CLOUDY    72  70  92 NE6       29.89S
SAN ANTONIO    CLOUDY    72  65  78 NE5       29.89F
STINSON        CLOUDY    75  66  73 NE6       29.86F
PLEASANTON     NOT AVBL
LA GRANGE      CLOUDY    72  67  84 NE5       29.87S
GIDDINGS       CLOUDY    69  64  83 CALM      29.90S
$$

EAST TEXAS

CITY           SKY/WX    TMP DP  RH WIND       PRES   REMARKS
PARIS          CLOUDY    64  55  72 S6        29.95R
CLARKSVILLE    NOT AVBL
TYLER          CLOUDY    63  62  97 NE5       29.93F FOG
LONGVIEW       CLOUDY    62  61  96 NE5       29.93S
PALESTINE      CLOUDY    64  63  99 NE3       29.94S FOG
NACOGDOCHES    CLOUDY   N/A N/A N/A N5        29.90S
$$

TEXAS HILL COUNTRY AND EDWARDS PLATEAU

CITY           SKY/WX    TMP DP  RH WIND       PRES   REMARKS
LLANO          PTCLDY    70  64  83 E6        29.95S
HORSESHOE BAY  NOT AVBL
KERRVILLE      CLOUDY    69  65  89 E8        29.93R
FREDERICKSBRG  CLOUDY    68  63  82 E3        29.93F
ROCKSPRINGS    CLOUDY    72  66  83 CALM      29.96R
HONDO          CLEAR     73  68  84 E6        29.88S
UVALDE         CLEAR     72  67  85 CALM      29.88S
DEL RIO        PTCLDY    73  70  90 SW3       29.88R
$$

SOUTHEAST TEXAS

CITY           SKY/WX    TMP DP  RH WIND       PRES   REMARKS
COLLEGE STN    CLOUDY    71  65  81 NE8       29.89S
CALDWELL       NOT AVBL
CROCKETT       CLOUDY    64  63  94 N5        29.94S FOG
BRENHAM        CLOUDY    72  65  81 CALM      29.89F
HUNTSVILLE     CLOUDY    68  63  84 CALM      29.90R
CONROE         CLOUDY    67  64  90 N6        29.88S
HOUSTON BUSH   CLOUDY    70  65  84 N9        29.87R
HOUSTON HOBBY  CLOUDY    72  67  84 N10       29.85R
PERLAND        MOCLDY    75  68  78 N8        29.86R
WHARTON        PTCLDY    72  68  87 N6        29.86S
$$

THE UPPER TEXAS COAST

CITY           SKY/WX    TMP DP  RH WIND       PRES   REMARKS
ORANGE         CLEAR     70  69  97 CALM      29.86F
PORT ARTHUR    CLOUDY    70  66  87 N8        29.84S
GALVESTON      MOCLDY    77  72  84 N15       29.85R
ANGLETON       CLEAR     75  72  90 N6        29.84R
BAY CITY       PTCLDY    75  72  89 N5        29.83S
$$

TEXAS COASTAL BEND, RIO GRANDE PLAINS DEEP SOUTH TEXAS

CITY           SKY/WX    TMP DP  RH WIND       PRES   REMARKS
VICTORIA       CLOUDY    76  71  85 NE9       29.84S
BEEVILLE       FAIR      80  73  79 NE6       29.83S
ROCKPORT       PTCLDY    79  72  79 CALM      29.81R
PORT ARANSAS   CLEAR     78  73  84 CALM      29.82R
PORT LAVACA    CLEAR     75  74  95 CALM      29.84R
CORPUS CHRISTI PTCLDY    77  73  87 SE5       29.81S
KINGSVILLE NAS NOT AVBL
COTULLA        PTCLDY    79  69  71 NE7       29.85R
LAREDO         CLOUDY    82  72  71 NE6       29.85R
BROWNSVILLE    MOCLDY    84  76  76 E7        29.81R
PORT ISABEL    CLOUDY    83  77  82 E8        29.80R
HEBBRONVILLE   CLOUDY    81  69  67 CALM      29.85R
MCALLEN        CLOUDY    86  74  67 NE13      29.80R
WESLACO        CLOUDY    82  75  79 NE12      29.79R
FALFURRIAS     CLEAR     80  72  76 CALM      29.82R
EDINBURG       CLOUDY    85  74  68 E10       29.81R
$$



USA.gov is the U.S. government's official web portal to all federal, state and local government web resources and services.